Regional Weather Roundup
Issued by NWS Portland, ME

Home | Current Version | Previous Version | Text Only | Print | Product List | Glossary On
Versions: 1 2 3 4 5 6 7 8 9 10 11 12 13 14 15 16 17 18 19 20 21 22 23 24 25 26 27 28 29 30 31 32 33 34 35 36 37 38 39 40 41 42 43 44 45 46 47 48 49 50
000
ASUS41 KGYX 200710
RWRGYX
WEATHER ROUNDUP FOR MAINE AND NEW HAMPSHIRE
NATIONAL WEATHER SERVICE GRAY ME
300 AM EDT SUN AUG 20 2017

MEZ002-005-006-010-012-015-018-020-021-024-026-027-029-200800-
MAINE

CITY           SKY/WX    TMP DP  RH WIND       PRES   REMARKS
PORTLAND       CLEAR     66  62  87 SW6       29.82R
SANFORD        CLOUDY    60  60 100 SW3       29.84R
BAR HARBOR     FOG       63  63 100 S3        29.81S VSB 1/2
WISCASSET      CLOUDY    66  64  93 SW3       29.82S
ROCKLAND       FOG       63  63 100 CALM      29.80F VSB 1/4
FRYEBURG       PTCLDY    67  61  81 W3        29.83S
LEWISTONAUBURN FOG       64  64 100 CALM      29.83R VSB 1/4
AUGUSTA        FOG       64  64 100 CALM      29.82S VSB 1/4
WATERVILLE     FOG       64  64 100 CALM      29.80R VSB 1/4
BANGOR         CLOUDY    66  64  93 S5        29.80F FOG
GREENVILLE       N/A     62  61  96 N3        29.81F
MILLINOCKET    CLOUDY    65  65 100 CALM      29.80F
HOULTON        CLOUDY    65  65 100 CALM      29.77F
PRESQUE ISLE   LGT RAIN  63  63 100 SE6       29.77F
FRENCHVILLE    FOG       61  60  97 S7        29.76F VSB 1/4
CARIBOU        CLOUDY    63  62  97 S6        29.76F FOG
$$

NHZ002-005-008-009-011-012-014-200800-
NEW HAMPSHIRE

CITY           SKY/WX    TMP DP  RH WIND       PRES   REMARKS
PORTSMOUTH     MOCLDY    65  64  96 W3        29.82R
ROCHESTER      CLOUDY    64  61  90 NW3       29.83S
NASHUA         MOCLDY    66  65  96 CALM      29.84F
MANCHESTER     CLOUDY    68  63  84 CALM      29.83S
CONCORD        CLOUDY    63  61  93 CALM      29.85S
LACONIA        MOCLDY    65  62  90 CALM      29.85S
PLYMOUTH       FAIR      60  58  96 CALM      29.84S FOG
BERLIN         MOCLDY    60  56  86 CALM      29.85F
WHITEFIELD     MOCLDY    61  57  87 CALM      29.85S
JAFFREY        CLOUDY    66  65  96 CALM      29.89S
KEENE            N/A    N/A N/A N/A MISG        N/A
LEBANON        LGT RAIN  65  63  93 CALM      29.85S
MT WASHINGTON  FOG       48  48 100 W41         N/A  VSB 0
$$

VTZ005-007-008-200800-
VERMONT

CITY           SKY/WX    TMP DP  RH WIND       PRES   REMARKS
ST JOHNSBURY     N/A     62  62 100 MISG      29.83F
MONTPELIER     MOCLDY    61  60  97 CALM      29.90R
BURLINGTON     MOCLDY    66  62  87 CALM      29.84S
$$

MAZ007-012-024-CTZ003-RIZ002-NYZ038-NYZ072-200800-
SOUTHERN NEW ENGLAND AND NY

CITY           SKY/WX    TMP DP  RH WIND       PRES   REMARKS
BOSTON         PTCLDY    74  64  71 SW9       29.83S
WORCESTER        N/A     69  60  73 W12       29.88S
NANTUCKET      CLEAR     69  69 100 SW9       29.87F FOG
PROVIDENCE     CLEAR     72  68  87 W5        29.85F
HARTFORD       MOCLDY    69  63  81 CALM      29.88R
ALBANY         MOCLDY    65  60  84 S3        29.90S
NEW YORK CITY  PTCLDY    76  65  68 W9        29.91R
$$

ANZ081-ANZ082-ANZ150-NHZ014-MEZ023>029-200800-
COASTAL MARINE OBSERVATIONS

STATION/POSITION TIME  TEMP    WIND        PRES    WAVE
                       AIR SEA DIR/SP/G            HT/PER
                 (UTC) (F)     (DEG/KT/KT) (MB)    (FT/S)
MOUNT DESERT ROC 0700   60                 1009.4F
MATINICUS ROCK   0600   63     210/  9/ 10 1009.1F
ISLE OF SHOALS   0600   67     240/  6/  6 1009.7F
JEFFREYS LEDGE   0606      64                N/A     2/ 6
CASHES LEDGE BUO 0650   69 68              1009.5F   3/ 7
GEORGES BANK BUO 0550   66 62              1011.8    5/ 6
$$

.............KEY..............
   WCI - WIND CHILL
   TC  - TEMPERATURE IN CELSIUS
   VSB - VISIBILITY IN MILES
   HX  - HEAT INDEX
   FAIR- INDICATES FEW OR NO CLOUDS BELOW 12,000 FT, WITH NO
         SIGNIFICANT WEATHER AND/OR OBSTRUCTIONS TO VISIBILITY.






USA.gov is the U.S. government's official web portal to all federal, state and local government web resources and services.